Temp
4 4 3 3 3 2 2 2 2 2 2 2 2 2 2 2 2 2 2 2 2 1 2 2 2 2 2 3 3 5 5 4 2 5 6 7 6 8 9 11 11 10 11 13 16 15 17 19 20 24 19 19 21 22
4 4 3 3 3 3 3 2 2 2 2 2 2 2 2 2 2 1 2 2 1 1 2 3 3 3 3 3 3 4 5 4 4 4 4 5 8 8 7 10 11 11 11 13 15 13 14 17 17 17 18 18 17 19
4 4 4 3 3 3 3 3 2 2 2 2 2 2 2 2 2 2 2 2 2 2 2 2 5 6 5 6 6 3 4 5 4 4 3 4 7 8 8 8 11 11 11 13 14 15 13 14 16 16 17 17 18 19
4 4 4 4 4 3 3 3 3 3 2 3 2 2 2 2 2 2 2 2 1 2 1 3 4 4 6 6 6 5 6 6 6 5 4 3 5 8 7 9 9 11 11 12 12 13 12 14 14 16 16 17 17 18
5 5 5 4 4 4 4 4 3 3 3 4 4 2 2 3 3 2 3 3 3 2 2 3 4 7 7 7 8 7 6 5 6 4 4 5 7 7 8 8 9 10 10 12 12 11 11 11 13 16 16 16 16 18
5 5 5 5 5 5 5 4 4 4 4 4 4 4 4 3 3 2 2 3 3 2 2 2 5 7 8 9 9 9 8 7 6 7 6 8 7 7 7 8 9 10 10 10 11 11 10 12 13 14 15 14 14 15
6 6 6 6 6 5 5 5 5 5 5 5 4 4 4 4 3 2 4 4 3 2 2 3 2 6 8 8 10 10 10 8 8 8 8 7 7 5 6 8 8 9 9 11 11 12 12 12 11 12 13 14 15 15
6 6 6 6 7 6 6 5 5 6 6 5 5 5 5 4 4 4 5 4 3 1 2 3 3 5 6 7 8 9 9 9 7 7 6 6 5 5 8 8 8 9 10 10 11 12 12 12 13 14 14 14 15 15
6 6 7 7 7 7 7 6 6 6 6 7 6 6 6 5 4 4 4 4 3 2 3 3 4 4 5 6 7 7 7 6 6 5 5 5 7 7 7 7 8 9 10 10 10 11 13 13 12 13 14 13 13 14
7 7 7 7 8 8 7 6 7 7 6 7 6 6 6 5 5 4 4 3 3 2 2 2 3 4 4 6 6 6 6 6 5 5 6 6 7 7 7 8 9 9 9 9 10 9 10 11 12 12 11 11 12 13
7 7 7 7 8 8 7 7 7 7 6 6 6 6 6 5 5 4 4 3 3 4 3 3 3 4 6 6 6 7 6 6 5 7 7 7 6 7 7 8 8 9 8 9 9 10 10 11 11 11 11 11 12 13
7 7 7 8 8 9 7 8 8 7 6 5 4 5 5 5 5 4 2 2 3 4 4 5 6 6 6 6 5 7 7 7 8 8 7 6 7 7 7 8 8 8 8 9 10 10 10 10 11 12 12 12 13 13
7 7 8 8 9 9 8 9 9 8 7 7 6 6 6 6 5 4 4 5 5 5 6 7 7 6 6 7 7 7 7 8 8 7 5 6 6 7 7 8 9 9 10 11 11 11 12 12 12 12 13 13 13 13
7 8 8 9 9 9 10 10 9 9 7 7 7 6 6 6 7 7 8 8 9 8 8 8 7 7 7 8 7 9 8 8 8 7 6 6 7 7 8 8 8 8 11 9 10 12 13 13 13 13 13 13 13 13
8 8 9 9 9 10 10 10 10 10 8 8 8 5 7 8 8 10 11 12 11 11 10 9 9 9 7 8 7 8 8 6 6 7 7 8 8 8 9 9 10 9 10 10 10 12 12 12 12 12 13 13 13 13
8 9 8 9 10 10 11 11 11 10 10 10 9 8 9 8 9 10 10 10 10 12 12 10 8 8 7 6 7 6 6 7 7 8 7 9 8 9 10 10 10 11 11 11 12 12 12 12 12 12 12 12 13 13
9 8 8 9 10 11 11 11 10 10 11 10 9 9 10 9 8 9 9 9 11 11 10 8 8 7 6 6 6 6 7 7 7 7 8 9 9 9 10 11 11 11 11 11 11 12 12 12 12 12 11 11 12 12
9 8 8 9 10 11 11 11 11 12 10 9 8 9 10 9 8 9 9 9 10 10 10 9 9 8 7 6 7 7 7 8 9 8 8 9 10 10 10 11 11 10 11 11 11 11 11 11 11 11 11 11 11 11
9 9 9 10 10 11 11 11 11 11 11 10 10 10 9 9 9 9 10 10 10 10 9 8 8 7 6 7 7 8 10 10 9 10 9 9 10 11 10 10 10 11 11 10 10 10 10 10 10 10 10 10 10 10
10 10 10 10 10 10 11 11 11 11 10 10 10 10 10 10 10 9 9 9 10 9 9 7 7 7 7 8 9 10 10 11 11 10 10 11 11 11 11 10 10 9 9 9 9 9 9 9 9 9 9 9 9 9
11 11 11 10 10 10 10 11 11 11 11 11 11 10 10 10 10 9 9 9 9 9 8 9 9 9 10 10 10 10 10 10 10 10 10 10 10 10 9 9 9 8 8 7 8 8 8 8 8 8 8 8 8 8
12 12 11 11 10 11 11 11 11 11 11 11 11 11 10 9 10 10 9 9 8 8 9 9 9 9 9 9 9 9 9 9 9 9 9 10 9 8 7 6 7 6 6 6 6 6 6 6 7 7 6 6 6 6
12 12 11 11 11 11 12 11 11 12 10 11 11 10 10 10 10 9 9 8 8 8 8 9 9 9 9 9 9 9 9 9 8 8 7 7 7 6 6 6 6 5 5 4 5 5 6 5 5 5 5 5 4 4
12 11 11 11 11 11 13 13 13 13 13 10 7 8 8 9 9 9 7 7 7 8 8 8 8 8 9 8 8 8 8 8 7 7 6 6 6 5 5 4 4 4 4 3 3 3 4 4 3 3 3 4 3 2
11 11 11 11 11 11 11 11 13 12 11 9 8 7 7 8 8 8 7 6 7 7 7 8 8 8 8 7 7 7 7 7 7 6 5 5 4 4 4 3 3 2 2 2 2 2 2 2 2 2 2 2 2 1
6 10 11 10 9 8 10 11 11 12 12 12 10 8 8 8 8 6 5 6 7 7 7 8 8 8 7 7 6 6 5 5 5 4 4 4 3 2 2 3 2 2 2 1 1 1 1 1 1 1 0 1 1 1
7 10 11 10 10 10 11 13 13 12 11 11 11 11 9 8 6 6 7 7 7 7 8 8 7 7 6 6 5 5 5 4 3 3 3 3 2 2 1 1 1 1 1 1 1 1 0 0 0 0 -0 -0 -0 -1
12 10 8 11 11 12 13 12 11 9 9 11 11 8 8 7 5 8 7 7 7 8 7 7 6 6 5 5 4 4 4 3 3 2 2 1 1 1 1 1 1 1 1 1 0 0 0 0 0 -0 -1 -1 -1 -1
12 13 12 12 12 14 13 12 11 11 10 10 8 7 7 7 8 7 7 7 8 7 7 6 6 5 4 4 3 3 2 2 2 1 0 -0 -0 -0 -0 -0 -0 0 0 0 -0 -0 -0 -1 -1 -1 -1 -1 -2 -2
14 14 13 14 14 13 13 13 11 11 11 11 9 8 8 8 7 7 7 7 7 7 6 6 5 4 4 3 3 2 1 1 1 0 -1 -1 -1 -1 -1 -1 -1 -1 -0 -1 -1 -1 -1 -1 -1 -1 -2 -2 -2 -2
17 16 15 15 15 14 13 12 11 11 10 10 9 9 8 8 7 7 7 7 6 6 6 5 4 3 3 3 2 2 1 0 -0 -0 -1 -2 -2 -2 -2 -2 -2 -1 -1 -1 -1 -1 -2 -2 -2 -2 -2 -3 -3 -3
17 17 17 15 14 13 12 12 11 11 11 10 10 9 8 8 8 7 7 7 6 6 4 4 4 3 2 2 2 1 1 0 -0 -1 -1 -2 -2 -2 -2 -2 -3 -2 -2 -2 -2 -2 -2 -2 -3 -3 -3 -3 -3 -3
18 17 17 17 14 13 13 12 12 12 12 11 10 10 9 9 8 7 6 6 6 5 4 3 3 2 2 1 1 1 1 0 -0 -1 -1 -1 -2 -2 -2 -2 -2 -2 -2 -3 -2 -3 -3 -3 -3 -3 -4 -4 -4 -3
Height
1535 1531 1527 1522 1517 1512 1506 1500 1495 1490 1486 1481 1477 1474 1470 1467 1465 1463 1460 1459 1458 1451 1443 1441 1442 1442 1440 1439 1437 1431 1429 1424 1423 1419 1412 1406 1406 1396 1390 1380 1374 1385 1390 1386 1384 1383 1372 1340 1325 1329 1330 1334 1334 1336
1535 1530 1525 1520 1515 1509 1504 1499 1494 1489 1483 1479 1475 1471 1468 1464 1462 1459 1455 1455 1453 1449 1437 1435 1432 1430 1429 1426 1432 1429 1426 1424 1423 1422 1411 1409 1394 1389 1390 1384 1372 1385 1382 1378 1373 1381 1365 1354 1345 1340 1334 1332 1338 1338
1532 1528 1523 1518 1513 1508 1502 1497 1491 1485 1481 1476 1473 1469 1465 1461 1458 1456 1451 1451 1449 1442 1431 1424 1418 1419 1418 1418 1418 1425 1419 1419 1419 1420 1421 1413 1396 1386 1386 1381 1371 1372 1373 1370 1367 1361 1365 1358 1347 1345 1340 1338 1338 1339
1531 1526 1521 1516 1511 1506 1500 1494 1488 1482 1477 1471 1467 1463 1459 1455 1453 1450 1447 1446 1445 1440 1432 1415 1413 1408 1407 1408 1408 1408 1408 1412 1412 1413 1416 1411 1402 1388 1380 1374 1374 1368 1371 1369 1365 1359 1361 1361 1357 1354 1347 1345 1344 1342
1529 1524 1519 1514 1510 1504 1497 1490 1483 1477 1471 1465 1460 1457 1454 1450 1447 1444 1441 1437 1438 1440 1431 1414 1403 1398 1400 1398 1399 1400 1402 1406 1408 1410 1408 1404 1393 1388 1377 1373 1372 1368 1367 1366 1367 1365 1373 1366 1363 1357 1351 1350 1351 1349
1527 1522 1517 1512 1506 1501 1494 1486 1478 1470 1465 1460 1456 1452 1449 1446 1442 1441 1436 1435 1433 1433 1429 1419 1405 1394 1392 1392 1391 1392 1394 1396 1401 1399 1399 1396 1393 1391 1381 1370 1367 1369 1367 1365 1365 1359 1369 1368 1363 1362 1357 1358 1363 1357
1525 1519 1514 1508 1502 1497 1490 1481 1473 1466 1460 1455 1450 1446 1442 1440 1439 1439 1436 1433 1431 1430 1427 1417 1409 1397 1392 1387 1387 1387 1388 1390 1392 1395 1394 1394 1392 1394 1383 1370 1368 1366 1364 1361 1364 1361 1371 1369 1371 1369 1366 1365 1366 1360
1522 1517 1510 1505 1498 1492 1485 1477 1470 1461 1454 1449 1443 1438 1437 1436 1434 1430 1427 1426 1426 1427 1426 1420 1407 1399 1394 1390 1389 1388 1388 1390 1390 1390 1391 1391 1390 1385 1374 1369 1366 1361 1361 1364 1365 1369 1369 1373 1371 1376 1372 1378 1371 1363
1519 1513 1507 1501 1495 1488 1482 1474 1465 1457 1450 1443 1438 1434 1431 1430 1428 1426 1423 1422 1421 1425 1422 1417 1410 1403 1395 1391 1392 1390 1391 1393 1393 1390 1388 1389 1378 1378 1374 1368 1363 1357 1358 1363 1367 1366 1364 1371 1377 1374 1373 1373 1375 1374
1515 1510 1504 1498 1491 1485 1479 1473 1462 1455 1449 1441 1435 1432 1431 1429 1426 1422 1421 1421 1420 1419 1417 1412 1407 1402 1400 1392 1392 1394 1390 1391 1391 1388 1384 1384 1381 1377 1370 1363 1362 1358 1361 1367 1368 1374 1375 1380 1382 1383 1384 1377 1384 1384
1511 1506 1500 1494 1488 1483 1477 1469 1461 1454 1448 1441 1438 1435 1431 1426 1424 1422 1423 1423 1419 1415 1410 1403 1399 1396 1393 1390 1390 1390 1387 1389 1388 1384 1383 1385 1384 1376 1371 1367 1363 1366 1367 1371 1374 1377 1380 1383 1384 1384 1381 1392 1393 1392
1507 1502 1497 1491 1485 1480 1475 1469 1462 1455 1452 1446 1442 1435 1431 1430 1428 1428 1429 1423 1417 1408 1399 1398 1392 1389 1389 1389 1390 1386 1385 1386 1382 1384 1388 1392 1388 1380 1378 1376 1375 1376 1376 1376 1378 1383 1383 1382 1386 1387 1393 1392 1394 1394
1502 1497 1492 1487 1482 1478 1473 1468 1463 1457 1452 1445 1443 1439 1436 1435 1434 1432 1427 1420 1413 1405 1400 1395 1391 1390 1389 1388 1388 1388 1386 1387 1386 1393 1403 1402 1393 1386 1385 1383 1383 1382 1381 1384 1384 1385 1385 1387 1389 1391 1394 1397 1396 1395
1498 1493 1488 1484 1480 1475 1472 1468 1463 1458 1454 1452 1450 1448 1446 1443 1439 1431 1423 1414 1405 1400 1394 1391 1391 1391 1390 1390 1390 1387 1394 1395 1398 1403 1409 1403 1401 1396 1395 1392 1390 1392 1391 1391 1392 1393 1393 1394 1395 1398 1399 1399 1398 1397
1494 1489 1485 1482 1478 1474 1472 1469 1466 1462 1459 1458 1458 1464 1459 1451 1441 1430 1419 1410 1403 1396 1391 1391 1392 1394 1395 1398 1405 1404 1405 1412 1415 1410 1408 1408 1405 1401 1399 1398 1399 1399 1401 1402 1401 1400 1401 1402 1402 1402 1403 1403 1403 1403
1491 1487 1484 1480 1477 1476 1474 1472 1468 1465 1464 1464 1465 1466 1457 1450 1442 1432 1426 1418 1408 1401 1395 1396 1401 1405 1412 1417 1418 1421 1421 1422 1419 1419 1418 1415 1414 1410 1409 1408 1407 1409 1409 1410 1409 1408 1408 1409 1408 1408 1407 1409 1408 1405
1491 1488 1484 1480 1479 1477 1475 1473 1470 1470 1471 1473 1473 1469 1462 1458 1453 1445 1437 1430 1421 1407 1403 1406 1416 1425 1429 1432 1433 1432 1430 1430 1427 1423 1422 1420 1420 1421 1420 1417 1417 1419 1419 1418 1416 1416 1416 1415 1414 1414 1414 1413 1413 1412
1492 1489 1486 1483 1481 1479 1477 1476 1475 1478 1480 1480 1476 1473 1468 1464 1458 1452 1444 1435 1428 1425 1423 1426 1431 1435 1442 1445 1444 1441 1440 1437 1434 1433 1433 1431 1426 1426 1427 1426 1427 1427 1426 1425 1424 1424 1422 1421 1421 1421 1421 1421 1419 1419
1494 1492 1489 1486 1484 1482 1481 1481 1482 1483 1485 1484 1481 1477 1473 1469 1467 1462 1456 1451 1447 1444 1438 1441 1448 1455 1456 1454 1452 1448 1446 1444 1442 1440 1440 1439 1437 1436 1436 1435 1434 1432 1431 1431 1431 1431 1430 1429 1429 1428 1427 1425 1424 1424
1496 1494 1492 1490 1488 1487 1487 1487 1486 1487 1488 1488 1484 1481 1479 1478 1475 1470 1466 1463 1458 1453 1454 1460 1465 1467 1464 1460 1456 1454 1452 1451 1448 1446 1446 1445 1444 1443 1443 1443 1442 1442 1440 1439 1438 1437 1436 1435 1434 1433 1431 1429 1428 1428
1498 1496 1495 1493 1491 1490 1491 1491 1490 1490 1489 1488 1487 1485 1485 1483 1479 1477 1475 1474 1469 1468 1471 1473 1472 1471 1468 1465 1461 1460 1458 1456 1453 1452 1452 1449 1448 1447 1446 1445 1445 1445 1445 1445 1443 1442 1440 1440 1441 1440 1438 1436 1435 1434
1497 1496 1495 1495 1494 1494 1493 1492 1491 1491 1490 1489 1488 1488 1488 1487 1485 1485 1484 1480 1479 1481 1481 1480 1478 1476 1474 1472 1470 1467 1466 1462 1460 1458 1456 1455 1453 1452 1452 1453 1452 1451 1450 1450 1448 1447 1447 1447 1446 1445 1444 1442 1440 1438
1496 1495 1495 1495 1495 1494 1495 1492 1491 1489 1488 1489 1492 1490 1491 1492 1492 1491 1491 1493 1493 1491 1488 1485 1483 1481 1479 1477 1474 1471 1470 1467 1465 1464 1463 1462 1461 1461 1459 1458 1457 1456 1455 1454 1453 1452 1452 1451 1449 1448 1447 1444 1442 1441
1495 1495 1495 1495 1495 1494 1493 1490 1488 1486 1485 1488 1492 1493 1494 1494 1495 1495 1498 1499 1498 1494 1491 1488 1486 1483 1481 1479 1477 1475 1473 1472 1471 1469 1467 1465 1465 1465 1463 1461 1460 1459 1459 1458 1456 1455 1454 1453 1452 1450 1449 1448 1445 1443
1498 1499 1499 1496 1497 1496 1493 1491 1488 1487 1489 1490 1495 1496 1495 1496 1496 1499 1501 1502 1499 1496 1493 1491 1489 1486 1484 1483 1481 1479 1477 1474 1472 1472 1472 1469 1468 1467 1466 1464 1463 1462 1461 1459 1457 1456 1455 1453 1452 1451 1448 1447 1445 1443
1499 1501 1501 1500 1500 1499 1497 1495 1492 1488 1487 1488 1491 1494 1495 1497 1501 1506 1506 1504 1501 1499 1496 1494 1491 1489 1487 1485 1483 1482 1481 1478 1475 1473 1475 1473 1470 1468 1467 1466 1465 1464 1462 1461 1459 1457 1455 1454 1453 1451 1449 1448 1447 1445
1504 1502 1501 1501 1501 1500 1498 1494 1492 1492 1492 1491 1490 1491 1496 1502 1509 1509 1506 1504 1502 1499 1497 1494 1491 1490 1488 1487 1485 1485 1484 1481 1479 1478 1476 1475 1473 1471 1469 1468 1467 1466 1464 1462 1460 1458 1456 1455 1453 1452 1451 1450 1448 1447
1502 1502 1503 1501 1500 1499 1497 1496 1497 1498 1497 1495 1494 1499 1502 1505 1509 1508 1506 1504 1501 1499 1498 1495 1493 1490 1488 1487 1486 1485 1483 1482 1481 1479 1477 1475 1474 1472 1471 1469 1468 1466 1464 1462 1461 1459 1457 1456 1454 1453 1451 1450 1449 1448
1499 1498 1500 1498 1497 1497 1497 1498 1499 1498 1498 1497 1498 1501 1503 1503 1505 1505 1504 1503 1501 1499 1498 1496 1493 1492 1488 1485 1484 1483 1482 1480 1478 1477 1475 1474 1473 1472 1470 1469 1467 1466 1464 1462 1461 1460 1458 1457 1455 1454 1453 1451 1450 1448
1496 1496 1497 1495 1494 1495 1496 1497 1497 1499 1498 1497 1498 1501 1503 1503 1503 1503 1503 1501 1499 1498 1497 1495 1493 1490 1489 1486 1484 1483 1482 1480 1478 1477 1475 1474 1473 1471 1470 1468 1467 1466 1465 1463 1462 1460 1459 1458 1456 1455 1453 1451 1450 1448
1491 1491 1492 1491 1490 1491 1492 1494 1496 1497 1498 1498 1498 1499 1500 1501 1502 1502 1501 1499 1498 1497 1496 1494 1492 1490 1488 1487 1485 1482 1482 1481 1480 1478 1475 1473 1471 1470 1469 1467 1466 1465 1465 1463 1462 1460 1459 1458 1456 1455 1453 1451 1449 1447
1489 1488 1488 1488 1490 1491 1492 1492 1494 1495 1496 1497 1498 1498 1499 1499 1500 1500 1500 1498 1496 1495 1494 1492 1491 1489 1488 1486 1484 1483 1482 1481 1480 1479 1477 1474 1473 1471 1469 1467 1465 1464 1464 1463 1462 1461 1459 1458 1456 1454 1452 1451 1449 1447
1487 1487 1486 1486 1489 1490 1490 1490 1490 1491 1492 1493 1494 1495 1496 1497 1497 1498 1498 1496 1495 1494 1492 1491 1490 1488 1487 1485 1483 1482 1482 1481 1480 1478 1477 1475 1474 1472 1470 1469 1467 1465 1464 1463 1462 1460 1459 1457 1455 1454 1452 1450 1448 1446
Wind_Speed
23 25 25 25 26 27 27 26 25 22 22 21 21 21 18 15 13 13 14 11 14 15 27 28 27 21 16 13 6 9 8 1 3 2 3 4 5 5 3 6 5 5 2 3 4 4 6 21 15 4 6 5 16 13
23 24 24 24 26 27 26 26 26 25 23 22 22 20 16 15 14 14 18 10 13 17 26 34 39 42 40 37 21 10 9 2 2 2 4 4 3 1 4 3 5 6 6 3 5 5 14 17 5 12 9 18 10 15
22 23 24 25 27 27 27 27 27 26 24 23 22 20 18 17 15 14 20 18 18 18 25 15 18 18 14 18 24 20 14 13 7 6 3 3 5 0 3 5 4 6 4 3 2 1 13 23 13 14 19 23 20 18
22 23 24 26 27 29 30 30 30 30 28 25 23 21 18 18 17 17 20 17 16 12 5 13 20 33 21 26 25 27 35 19 21 17 6 3 4 2 4 2 1 2 4 5 2 5 21 21 18 13 20 22 22 22
20 23 25 27 29 31 33 34 34 34 31 27 24 21 20 18 17 19 20 16 11 13 5 19 35 6 11 5 18 32 31 32 16 6 5 4 5 4 4 3 3 1 2 1 1 10 6 10 5 21 23 20 22 24
19 22 25 29 31 33 34 35 36 36 32 28 24 21 17 15 15 15 6 3 1 1 6 4 11 13 14 6 7 16 25 30 21 9 5 4 5 7 3 2 1 3 9 11 3 26 8 20 23 20 28 26 19 26
20 23 26 29 32 34 35 37 39 39 34 28 25 21 16 14 15 12 7 6 10 12 6 4 4 7 17 12 4 6 14 18 15 16 6 4 3 8 3 2 4 13 11 5 20 21 19 22 17 20 27 26 28 30
21 24 28 31 33 36 35 39 42 40 34 26 19 16 15 14 18 18 10 11 13 16 6 3 4 5 11 7 5 5 7 10 3 1 1 2 4 6 3 6 19 16 9 12 11 20 31 27 26 20 23 21 26 33
23 26 28 32 34 35 34 39 42 39 30 17 15 15 10 5 5 8 13 14 9 6 3 3 2 3 10 5 3 4 7 3 4 1 2 3 2 1 7 18 13 14 8 23 20 16 21 22 18 18 22 24 25 23
27 27 29 31 33 34 35 38 39 36 27 17 9 5 4 3 16 17 3 0 2 4 6 3 4 3 4 3 1 1 6 2 2 2 3 2 2 12 16 8 11 22 22 23 24 16 19 14 14 13 13 15 13 18
29 28 29 30 32 31 34 36 35 34 27 17 9 4 13 16 6 3 3 3 3 3 5 7 12 5 5 3 1 1 2 2 1 1 1 3 4 6 20 14 24 22 26 24 20 15 11 16 18 18 18 11 10 10
28 28 29 30 30 26 32 32 30 29 24 18 15 14 9 5 3 3 2 5 3 3 3 3 6 6 5 6 3 3 0 2 2 2 3 3 6 22 23 18 21 14 12 15 15 8 11 15 13 12 10 10 7 7
28 27 27 27 25 26 27 25 25 28 25 10 6 5 6 5 5 5 5 4 4 3 5 7 3 1 3 4 3 0 3 4 2 4 3 3 13 22 26 21 18 16 20 20 20 18 15 13 14 18 18 16 18 18
26 25 24 22 20 22 19 19 24 27 11 7 7 8 4 6 4 5 11 8 13 8 17 11 3 1 1 1 2 4 4 4 3 4 3 3 14 20 10 11 19 19 21 20 20 20 23 23 25 24 22 19 20 20
24 22 16 17 17 13 14 18 21 19 7 5 7 6 5 13 22 26 27 26 31 27 7 1 5 6 4 4 5 5 4 5 5 4 2 17 23 23 10 15 14 22 31 27 20 22 28 27 26 25 23 23 21 21
23 16 17 18 14 8 14 16 13 10 6 6 4 3 17 12 16 27 29 31 38 30 5 10 4 5 9 4 6 7 4 5 4 5 14 20 24 26 29 27 31 34 34 30 32 30 31 32 32 28 28 25 28 30
16 13 16 16 8 10 14 14 8 5 8 8 8 18 20 17 15 24 28 27 24 29 11 5 7 8 3 5 5 5 4 5 12 17 15 21 19 20 26 30 29 22 31 32 33 34 36 30 28 30 26 23 24 24
16 13 13 14 9 11 18 14 7 6 5 12 9 23 24 27 27 28 33 40 24 24 18 6 6 6 5 5 7 4 12 20 23 23 26 22 23 28 25 26 26 29 27 30 33 33 32 32 32 30 26 23 21 19
12 10 13 15 13 9 6 8 8 4 12 12 22 29 28 29 32 34 33 34 34 28 14 8 7 5 5 6 9 15 15 16 16 22 23 20 19 24 20 19 24 24 23 24 26 27 31 30 27 26 24 19 22 20
10 11 11 13 12 6 5 5 8 6 5 8 13 18 23 25 27 31 34 32 25 24 17 6 6 11 17 26 22 20 23 21 21 24 21 19 20 18 20 26 26 27 27 27 26 24 22 25 25 23 25 19 18 21
8 7 11 11 9 8 3 4 3 3 2 2 5 9 12 19 28 28 29 24 28 26 14 21 28 30 28 33 31 26 25 24 27 23 23 22 14 17 25 23 21 28 28 27 25 23 22 22 20 20 20 16 16 17
7 7 6 8 5 4 2 2 3 5 2 3 2 4 5 8 10 18 26 24 26 21 29 28 26 23 29 26 28 27 24 25 24 22 21 19 24 27 28 25 25 27 26 24 22 22 22 20 16 16 22 19 18 19
4 3 3 3 2 2 3 3 3 3 2 3 4 2 3 3 6 11 6 15 20 27 25 22 21 23 16 20 22 25 24 22 24 22 21 21 21 20 20 20 18 18 20 20 16 14 14 13 15 11 11 16 18 15
3 2 2 1 2 3 3 3 4 4 2 5 4 5 3 4 4 4 2 7 18 22 23 20 19 24 19 17 20 20 21 18 19 19 17 18 18 19 19 19 18 17 15 13 14 13 11 13 14 17 13 13 17 17
1 3 4 4 4 5 4 7 3 3 1 4 4 2 1 1 2 3 2 8 17 21 22 22 21 19 19 16 13 17 16 15 13 15 15 15 15 13 16 18 18 17 16 17 16 16 15 13 14 16 15 12 15 19
4 5 5 5 5 2 4 4 3 3 1 2 3 6 3 2 3 3 4 13 13 16 18 19 15 13 16 11 10 14 17 15 11 15 14 12 15 16 16 16 16 15 16 16 16 17 12 13 15 16 16 14 12 12
3 3 3 3 3 5 6 6 6 6 5 4 2 3 3 3 3 4 8 7 11 15 16 15 11 12 10 9 9 10 11 16 16 16 10 9 10 14 15 15 13 12 12 14 14 13 11 10 12 13 13 14 14 13
1 4 3 2 4 4 2 4 4 4 4 9 4 5 3 2 3 0 6 12 13 12 13 8 9 12 10 8 9 10 12 13 12 7 8 11 8 7 8 8 9 10 10 14 9 9 8 8 8 9 10 11 12 11
5 5 6 4 3 1 2 2 2 3 6 3 3 2 4 6 6 1 6 7 10 8 9 11 6 6 9 8 10 12 13 15 18 21 14 10 11 11 8 8 8 7 8 12 6 7 10 9 7 8 9 11 12 9
5 14 5 6 3 3 3 4 5 6 7 8 9 10 8 7 4 1 3 4 3 7 8 10 6 7 7 8 8 9 11 15 19 22 12 7 7 5 4 7 6 5 7 12 9 9 9 8 9 8 9 9 10 10
10 10 9 5 4 9 12 11 9 8 7 8 9 11 9 7 6 4 1 4 5 7 9 8 6 7 4 4 5 7 7 10 16 18 18 5 5 3 5 7 6 3 5 9 11 12 10 9 8 8 9 10 12 13
4 2 2 2 4 15 17 15 13 13 13 10 8 8 7 5 4 6 3 5 9 8 6 4 7 6 5 6 9 8 7 9 11 14 18 15 13 11 13 12 5 4 8 7 7 7 7 7 8 9 10 11 12 10
6 2 1 2 6 8 10 11 11 9 10 7 5 8 5 5 3 5 3 5 7 5 4 3 6 8 8 10 9 6 7 7 9 9 13 14 11 13 11 12 13 4 5 7 4 7 9 9 10 12 10 10 11 12
Wind_Direction
351 348 346 345 346 347 347 347 347 343 344 341 340 337 332 328 324 313 304 293 267 269 276 264 268 260 272 257 254 290 326 240 312 259 239 203 210 228 242 281 106 110 138 150 221 282 263 352 334 179 170 97 112 87
352 350 349 349 350 349 347 346 345 345 341 339 337 335 332 335 320 305 299 305 287 278 266 279 280 276 268 262 254 248 249 149 266 305 343 314 270 243 196 247 144 161 199 236 191 180 293 304 358 29 106 101 75 104
352 352 351 351 349 350 350 345 343 340 337 335 333 330 325 321 320 308 302 308 303 286 294 289 292 306 289 269 262 240 255 229 216 186 295 288 269 30 201 228 161 189 196 249 52 256 349 350 75 59 83 96 106 108
353 353 352 350 349 348 345 342 341 341 335 324 320 318 313 310 310 304 298 305 286 273 275 286 297 289 296 256 252 247 245 242 247 243 220 243 265 51 281 268 29 296 121 240 268 354 343 351 19 69 78 87 88 90
350 350 351 349 348 345 341 338 336 334 331 327 321 314 310 307 300 301 298 295 255 258 271 293 308 335 322 322 246 239 244 234 227 198 220 261 285 334 244 225 202 266 72 286 30 84 233 356 23 72 61 70 76 79
349 348 347 346 345 345 340 337 336 333 330 325 322 320 312 308 303 309 315 224 152 269 282 294 303 297 342 310 259 247 246 236 226 215 242 225 305 330 291 293 80 346 301 268 176 96 89 70 65 71 80 76 72 77
342 343 343 342 341 341 339 338 337 336 333 327 320 310 304 296 286 267 263 276 252 295 289 281 281 288 325 330 268 227 215 208 217 223 218 220 258 2 271 283 360 315 325 194 153 94 71 81 60 65 80 81 77 82
334 336 337 337 339 340 340 339 340 340 337 330 319 306 296 293 290 279 288 265 249 261 261 283 277 297 355 342 5 14 188 196 48 339 171 185 266 211 261 335 314 303 316 123 142 135 113 104 101 84 91 85 80 79
328 331 333 334 336 339 340 342 343 344 346 340 326 316 296 252 266 286 290 296 217 213 263 239 265 294 332 304 358 39 12 36 314 294 233 184 278 328 310 301 306 294 166 122 124 117 110 97 85 66 73 65 59 67
323 326 330 331 334 339 341 346 343 347 350 343 345 330 310 289 307 298 320 301 212 219 225 250 225 263 247 245 73 150 200 194 242 250 265 44 348 295 315 351 45 66 101 119 110 94 113 111 109 100 90 82 50 63
321 325 327 329 334 338 341 346 343 344 355 353 338 305 303 314 310 339 358 359 290 246 227 239 218 223 255 254 213 246 218 115 295 296 192 42 337 343 29 28 86 78 84 88 93 96 117 127 124 120 106 124 106 85
320 324 326 327 333 336 342 344 340 345 349 324 314 310 321 336 343 23 337 278 263 273 250 263 276 239 249 197 202 244 57 186 31 46 44 24 333 351 22 52 78 92 55 55 77 111 127 110 110 99 115 104 115 65
323 325 326 326 332 338 340 340 341 344 348 341 332 311 335 353 11 344 320 292 271 234 264 255 307 352 341 30 72 286 345 37 307 42 32 315 327 14 33 49 46 48 60 77 73 97 95 109 105 106 107 102 92 84
330 330 327 329 337 337 343 343 342 344 346 354 338 344 29 338 346 291 312 298 315 266 281 279 252 39 332 55 329 26 33 15 51 39 1 296 327 326 27 63 55 40 74 55 71 87 92 97 100 99 92 93 82 75
339 339 342 343 344 348 358 347 344 348 356 19 19 11 347 308 316 334 355 5 360 1 344 180 75 28 14 47 16 7 39 36 14 356 7 32 49 61 50 28 72 80 92 75 67 71 83 83 87 75 78 71 70 74
346 359 1 353 351 21 16 9 355 7 22 6 57 1 335 330 340 358 3 358 360 3 56 53 45 36 39 23 11 22 22 22 356 36 28 39 54 67 73 80 81 80 76 73 69 81 84 82 76 81 83 74 71 69
2 0 3 7 40 41 28 19 359 22 28 17 351 18 14 8 356 7 13 6 8 27 27 47 44 34 5 31 22 356 18 18 32 39 51 51 54 52 70 82 95 91 58 79 75 73 71 80 77 68 73 67 61 65
9 21 20 21 27 49 40 26 19 63 26 11 14 18 31 33 26 22 25 30 29 18 20 43 41 35 54 31 52 23 34 50 64 71 73 74 61 59 87 77 86 74 75 71 68 66 66 65 61 60 62 62 62 59
18 42 35 26 24 25 19 22 17 70 28 35 44 44 42 38 40 40 45 45 47 51 47 40 41 27 18 11 6 15 39 58 66 80 103 65 55 78 84 82 77 82 72 63 59 63 62 59 53 45 49 58 58 66
39 56 38 37 28 18 33 18 7 49 23 39 51 45 43 38 42 44 44 43 44 47 49 50 57 40 37 41 42 39 48 55 55 73 61 53 50 58 57 67 86 80 77 73 68 63 60 53 50 45 40 38 41 58
51 59 45 37 32 39 52 14 21 24 345 341 62 45 43 45 46 46 45 47 53 54 53 59 55 47 48 50 58 62 55 51 63 69 72 67 69 78 79 84 88 81 75 68 67 63 59 51 47 45 49 66 54 55
41 52 50 31 8 349 326 340 285 311 293 294 348 49 22 12 19 39 43 43 42 44 43 37 37 44 44 42 45 52 51 51 54 61 74 68 74 84 81 78 75 70 66 61 58 55 53 48 46 58 62 65 53 44
23 44 64 28 317 294 299 288 281 238 196 122 32 45 33 12 36 49 44 35 36 36 36 37 37 35 43 45 39 39 39 48 53 68 74 74 72 70 69 67 63 59 54 48 38 31 29 22 31 39 41 46 59 70
52 48 33 295 283 283 295 256 250 259 241 72 34 326 19 41 356 85 79 19 20 20 16 17 20 18 52 56 50 41 32 33 53 62 72 69 71 62 58 58 56 48 34 28 31 24 4 358 17 49 43 43 61 66
55 28 8 8 41 3 322 335 316 338 2 96 131 201 258 57 29 56 55 359 5 8 15 24 20 36 50 67 47 43 46 43 64 72 68 82 84 66 51 46 49 47 25 19 22 15 15 42 39 40 48 53 58 62
65 19 24 358 333 52 313 322 309 309 57 95 100 127 118 86 62 23 344 349 358 4 355 356 347 32 64 85 63 48 49 62 76 66 49 36 52 55 44 25 25 30 19 19 20 28 45 47 44 48 48 43 38 31
47 348 339 313 277 287 292 298 342 34 4 18 12 130 88 65 37 329 332 2 353 8 9 19 74 56 84 81 52 44 48 48 67 75 70 59 51 52 49 48 44 37 25 14 20 32 36 36 32 28 31 26 28 28
183 219 198 290 285 241 310 16 31 17 355 337 10 35 69 107 190 297 339 349 339 343 23 61 54 64 64 50 29 19 21 21 27 60 61 60 58 50 44 39 36 30 21 10 15 39 38 41 32 37 32 25 18 10
216 219 208 275 230 310 63 104 80 15 345 13 80 112 160 170 164 234 5 43 355 3 21 27 37 48 55 37 19 14 18 18 14 18 32 45 35 34 36 36 32 29 15 29 92 51 59 65 47 30 17 9 16 24
231 218 203 214 168 159 162 158 154 123 90 112 125 132 138 154 153 84 16 3 16 19 20 25 30 28 52 16 17 12 15 15 13 14 19 23 20 350 351 13 16 17 25 30 18 10 357 347 4 21 24 19 14 6
129 214 210 199 189 175 182 175 161 159 161 162 157 155 164 186 198 187 13 10 353 347 6 23 31 29 28 39 20 345 354 7 15 17 18 350 315 319 341 334 332 5 45 37 1 5 46 29 32 19 11 9 3 1
166 197 349 134 138 172 168 168 177 193 196 182 172 167 169 181 212 199 230 304 310 330 18 22 7 14 359 351 345 349 1 12 13 21 29 37 44 36 30 24 23 87 47 38 49 44 41 14 9 4 1 355 354 356
310 347 27 128 138 179 201 180 203 188 187 172 153 171 174 166 148 187 221 320 336 351 35 13 350 343 348 356 4 1 346 355 13 22 29 30 28 15 15 29 36 40 12 356 11 27 17 7 357 355 357 2 356 349